GW2801 Weather Reports


time (UTC)temp
F
wind
direction
speed
knots
gust
knots
rain 1hr
in
rain 24hr
in
rain mn
in
humidity
%
barometer
mb
20260510144047 65 31 0.0 1.7 0.00 0.00 0.00 63 1020.4
20260510143542 65 58 0.0 1.7 0.00 0.00 0.00 64 1020.3
20260510143039 65 64 0.9 0.9 0.00 0.00 0.00 64 1020.3
20260510142536 65 83 0.9 0.9 0.00 0.00 0.00 65 1020.2
20260510142033 64 24 0.9 1.7 0.00 0.00 0.00 64 1020.1
20260510141529 64 283 1.7 2.6 0.00 0.00 0.00 65 1020.3
20260510141027 64 282 2.6 5.2 0.00 0.00 0.00 64 1020.2
20260510140523 64 34 0.0 2.6 0.00 0.00 0.00 65 1020.3
20260510140023 64 69 1.7 1.7 0.00 0.00 0.00 66 1020.0
20260510135519 63 74 1.7 3.5 0.00 0.00 0.00 65 1020.0
20260510135015 63 42 0.9 0.9 0.00 0.00 0.00 68 1019.6
20260510134512 63 300 2.6 2.6 0.00 0.00 0.00 66 1019.5
20260510134009 63 47 0.0 1.7 0.00 0.00 0.00 68 1019.4
20260510133505 62 8 0.9 2.6 0.00 0.00 0.00 69 1019.3
20260510133000 62 39 0.0 0.9 0.00 0.00 0.00 71 1019.3
20260510132458 62 29 0.0 0.0 0.00 0.00 0.00 71 1019.2
20260510131955 62 29 0.9 1.7 0.00 0.00 0.00 70 1019.1
20260510131453 61 32 0.9 2.6 0.00 0.00 0.00 72 1018.9
20260510130949 61 26 1.7 1.7 0.00 0.00 0.00 74 1018.9
20260510130446 60 22 0.9 0.9 0.00 0.00 0.00 75 1018.8
20260510125943 60 65 0.0 1.7 0.00 0.00 0.00 76 1019.0
20260510125439 60 55 0.0 0.9 0.00 0.00 0.00 78 1019.0
20260510124936 59 57 0.0 0.0 0.00 0.00 0.00 79 1018.7
20260510124432 59 57 0.0 0.0 0.00 0.00 0.00 80 1018.8
20260510123929 59 57 0.0 0.0 0.00 0.00 0.00 80 1018.6
20260510123425 58 57 0.0 0.0 0.00 0.00 0.00 80 1018.6
20260510122921 58 57 0.0 0.0 0.00 0.00 0.00 80 1018.4
20260510122416 58 57 0.0 0.0 0.00 0.00 0.00 80 1018.2
20260510121913 58 58 0.0 0.0 0.00 0.00 0.00 81 1018.3
20260510121410 57 50 0.0 0.0 0.00 0.00 0.00 81 1018.2
20260510120908 57 50 0.0 0.0 0.00 0.00 0.00 81 1018.1
20260510120405 57 50 0.0 0.9 0.00 0.00 0.00 82 1018.1
20260510115900 56 193 0.0 0.0 0.00 0.00 0.00 83 1017.9
20260510115352 56 193 0.0 0.0 0.00 0.00 0.00 82 1017.9
20260510114848 56 193 0.0 0.0 0.00 0.00 0.00 82 1018.1
20260510114345 57 193 0.0 0.0 0.00 0.00 0.00 82 1018.0
20260510113846 57 193 0.0 0.0 0.00 0.00 0.00 82 1017.5
20260510113342 57 193 0.0 0.0 0.00 0.00 0.00 81 1017.7
20260510112839 57 193 0.0 0.0 0.00 0.00 0.00 80 1017.5
20260510112336 57 193 0.0 0.0 0.00 0.00 0.00 79 1017.4
20260510111832 57 193 0.0 0.0 0.00 0.00 0.00 79 1017.3
20260510111329 57 193 0.0 0.0 0.00 0.00 0.00 79 1017.2
20260510110828 56 193 0.0 0.0 0.00 0.00 0.00 80 1017.3
20260510110326 56 193 0.0 0.0 0.00 0.00 0.00 81 1017.0
20260510105822 56 193 0.0 0.0 0.00 0.00 0.00 83 1017.0
20260510105322 56 193 0.0 0.0 0.00 0.00 0.00 83 1017.2
20260510104818 56 193 0.0 0.0 0.00 0.00 0.00 84 1017.0
20260510104316 56 192 0.0 0.0 0.00 0.00 0.00 84 1016.7
20260510103812 56 192 0.0 0.0 0.00 0.00 0.00 85 1017.0
20260510103309 56 192 0.0 0.0 0.00 0.00 0.00 85 1016.9
20260510102804 56 193 0.0 0.0 0.00 0.00 0.00 85 1017.0
20260510102300 56 192 0.0 0.0 0.00 0.00 0.00 85 1017.0
20260510101757 56 192 0.0 0.0 0.00 0.00 0.00 85 1016.9
20260510101256 56 193 0.0 0.0 0.00 0.00 0.00 85 1016.9
20260510100751 56 193 0.0 0.0 0.00 0.00 0.00 85 1016.7
20260510100250 57 193 0.0 0.0 0.00 0.00 0.00 85 1016.4
20260510095749 57 193 0.0 0.0 0.00 0.00 0.00 84 1016.4
20260510095245 57 193 0.0 0.0 0.00 0.00 0.00 83 1016.4
20260510094744 57 193 0.0 0.0 0.00 0.00 0.00 83 1016.4
20260510094240 57 193 0.0 0.0 0.00 0.00 0.00 83 1016.5
20260510093736 57 193 0.0 0.0 0.00 0.00 0.00 82 1016.4
20260510093233 58 193 0.0 0.0 0.00 0.00 0.00 81 1016.2
20260510092729 58 193 0.0 0.0 0.00 0.00 0.00 80 1016.2
20260510092225 58 193 0.0 0.0 0.00 0.00 0.00 79 1016.1
20260510091721 58 193 0.0 0.0 0.00 0.00 0.00 80 1015.9
20260510091218 58 193 0.0 0.0 0.00 0.00 0.00 79 1016.2
20260510090714 58 193 0.0 0.0 0.00 0.00 0.00 79 1015.9
20260510090211 57 193 0.0 0.0 0.00 0.00 0.00 80 1016.1
20260510085706 58 193 0.0 0.0 0.00 0.00 0.00 81 1016.1
20260510085201 58 193 0.0 0.0 0.00 0.00 0.00 81 1015.9
20260510084658 58 192 0.0 0.0 0.00 0.00 0.00 80 1015.7
20260510084154 59 192 0.0 0.0 0.00 0.00 0.00 79 1015.7
20260510083646 59 193 0.0 0.0 0.00 0.00 0.00 79 1015.8
20260510083143 59 193 0.0 0.0 0.00 0.00 0.00 79 1015.5
20260510082639 59 193 0.0 0.0 0.00 0.00 0.00 79 1015.5
20260510082135 58 193 0.0 0.0 0.00 0.00 0.00 80 1015.6
20260510081629 58 193 0.0 0.0 0.00 0.00 0.00 82 1015.5
20260510081125 59 193 0.0 0.0 0.00 0.00 0.00 81 1015.7
20260510080619 59 193 0.0 0.0 0.00 0.00 0.00 79 1015.9
20260510080116 59 192 0.0 0.0 0.00 0.00 0.00 79 1016.1
20260510075614 59 192 0.0 0.0 0.00 0.00 0.00 78 1015.9
20260510075110 59 192 0.0 0.0 0.00 0.00 0.00 78 1016.0
20260510074602 59 193 0.0 0.0 0.00 0.00 0.00 77 1015.9
20260510074057 59 186 0.9 0.9 0.00 0.00 0.00 77 1015.8
20260510073554 59 186 0.0 0.0 0.00 0.00 0.00 77 1015.8
20260510073051 59 187 1.7 1.7 0.00 0.00 0.00 75 1015.5
20260510072547 60 187 0.9 0.9 0.00 0.00 0.00 75 1015.7
20260510072043 60 186 0.0 0.0 0.00 0.00 0.00 74 1015.6
20260510071539 61 186 0.0 0.0 0.00 0.00 0.00 72 1015.7
20260510071038 61 186 0.0 0.0 0.00 0.00 0.00 73 1015.5
20260510070534 62 186 0.0 0.0 0.00 0.00 0.00 69 1015.7
20260510070031 62 186 0.0 0.0 0.00 0.00 0.00 69 1015.7
20260510065527 62 186 0.0 0.0 0.00 0.00 0.00 68 1015.6
20260510065023 62 186 0.0 0.0 0.00 0.00 0.00 66 1015.5
20260510064520 61 186 0.0 0.0 0.00 0.00 0.00 69 1015.5
20260510064017 61 186 0.0 0.0 0.00 0.00 0.00 73 1015.6
20260510063514 60 186 0.0 0.0 0.00 0.00 0.00 74 1015.4
20260510063011 60 186 0.0 0.0 0.00 0.00 0.00 74 1015.8
20260510062507 60 186 0.0 0.0 0.00 0.00 0.00 76 1015.7
20260510062002 59 186 0.0 0.0 0.00 0.00 0.00 77 1015.7
20260510061459 59 186 0.0 0.9 0.00 0.00 0.00 80 1015.9
20260510060955 59 175 0.9 1.7 0.00 0.00 0.00 80 1015.8
20260510060452 59 181 0.0 0.9 0.00 0.00 0.00 80 1015.7
20260510055948 59 172 0.0 0.0 0.00 0.00 0.00 78 1015.5
20260510055444 60 171 0.0 0.0 0.00 0.00 0.00 78 1015.4
20260510054942 60 171 0.0 0.0 0.00 0.00 0.00 77 1015.5
20260510054437 60 172 0.0 0.0 0.00 0.00 0.00 77 1015.5
20260510053932 60 171 0.0 0.0 0.00 0.00 0.00 77 1015.2
20260510053428 60 171 0.0 0.0 0.00 0.00 0.00 78 1015.2
20260510052925 60 172 0.0 0.0 0.00 0.00 0.00 78 1015.4
20260510052420 61 171 0.0 0.0 0.00 0.00 0.00 77 1015.6
20260510051917 61 171 0.0 0.0 0.00 0.00 0.00 77 1015.2
20260510051414 61 171 0.0 0.0 0.00 0.00 0.00 75 1015.4
20260510050910 62 171 0.0 0.0 0.00 0.00 0.00 74 1015.3
20260510050407 62 172 0.0 0.0 0.00 0.00 0.00 72 1015.1
20260510045904 62 172 0.0 0.0 0.00 0.00 0.00 72 1014.9
20260510045401 62 171 0.0 0.0 0.00 0.00 0.00 70 1015.1
20260510044858 62 171 0.0 0.0 0.00 0.00 0.00 69 1015.1
20260510044355 62 172 0.0 0.0 0.00 0.00 0.00 71 1015.0
20260510043851 62 172 0.0 0.0 0.00 0.00 0.00 71 1015.1
20260510043347 62 171 0.0 0.0 0.00 0.00 0.00 73 1015.2
20260510042845 62 172 0.0 0.0 0.00 0.00 0.00 72 1015.1
20260510042341 62 172 0.0 0.0 0.00 0.00 0.00 70 1015.1
20260510041837 62 172 0.0 0.0 0.00 0.00 0.00 69 1015.0
20260510041335 63 172 0.0 0.0 0.00 0.00 0.00 67 1015.1
20260510040832 63 172 0.0 0.0 0.00 0.00 0.00 66 1015.1
20260510040329 62 172 0.0 0.0 0.00 0.00 0.00 66 1014.7
20260510035824 62 172 0.0 0.0 0.00 0.00 0.00 68 1014.8
20260510035320 63 172 0.0 0.0 0.00 0.00 0.00 67 1014.6
20260510034816 63 172 0.0 0.0 0.00 0.00 0.00 66 1014.7
20260510034314 63 171 0.0 0.0 0.00 0.00 0.00 65 1014.8
20260510033810 64 171 0.0 0.9 0.00 0.00 0.00 65 1014.7
20260510033307 64 171 0.0 0.9 0.00 0.00 0.00 63 1014.7
20260510032804 64 172 0.0 0.0 0.00 0.00 0.00 61 1014.7
20260510032300 64 171 0.0 0.0 0.00 0.00 0.00 62 1014.6
20260510031756 64 171 0.0 0.0 0.00 0.00 0.00 61 1014.5
20260510031251 64 171 0.0 0.0 0.00 0.00 0.00 61 1014.4
20260510030745 64 171 0.0 0.0 0.00 0.00 0.00 58 1014.4
20260510030243 65 171 0.0 0.0 0.00 0.00 0.00 59 1014.5
20260510025739 65 171 0.0 0.0 0.00 0.00 0.00 58 1014.4
20260510025237 65 171 0.0 0.0 0.00 0.00 0.00 57 1014.1
20260510024728 66 171 0.0 0.0 0.00 0.00 0.00 57 1014.0
20260510024225 66 171 0.0 0.0 0.00 0.00 0.00 57 1013.9
20260510023720 66 172 0.0 0.0 0.00 0.00 0.00 56 1013.9
20260510023218 67 172 0.0 0.0 0.00 0.00 0.00 54 1013.6
20260510022714 67 172 0.0 0.0 0.00 0.00 0.00 54 1013.5
20260510022208 68 172 0.0 0.0 0.00 0.00 0.00 54 1013.6
20260510021703 68 171 0.0 0.0 0.00 0.00 0.00 51 1013.3
20260510021201 68 172 0.0 0.0 0.00 0.00 0.00 52 1013.2
20260510020656 69 171 0.0 0.0 0.00 0.00 0.00 52 1013.2
20260510020151 69 172 0.0 0.0 0.00 0.00 0.00 52 1013.1
20260510015647 70 172 0.0 0.0 0.00 0.00 0.00 49 1013.0
20260510015139 70 172 0.0 0.0 0.00 0.00 0.00 45 1012.7
20260510014638 70 172 0.0 0.0 0.00 0.00 0.00 46 1012.7
20260510014136 71 172 0.0 0.0 0.00 0.00 0.00 45 1012.6
20260510013631 71 172 0.0 0.0 0.00 0.00 0.00 44 1012.6
20260510013126 71 172 0.0 0.0 0.00 0.00 0.00 45 1012.5
20260510012621 71 172 0.0 0.0 0.00 0.00 0.00 44 1012.5
20260510012118 72 172 0.0 0.0 0.00 0.00 0.00 44 1012.4
20260510011616 72 172 0.0 0.0 0.00 0.00 0.00 43 1012.4
20260510011112 72 172 0.0 0.0 0.00 0.00 0.00 44 1012.5
20260510010609 73 172 0.0 0.0 0.00 0.00 0.00 44 1012.4
20260510010107 73 172 0.0 0.0 0.00 0.00 0.00 43 1012.3
20260510005601 74 172 0.0 0.0 0.00 0.00 0.00 42 1012.2
20260510005059 74 172 0.0 0.0 0.00 0.00 0.00 40 1012.1
20260510004557 75 172 0.0 0.0 0.00 0.00 0.00 39 1012.3
20260510004055 75 172 0.0 0.0 0.00 0.00 0.00 38 1012.3
20260510003552 75 172 0.0 0.0 0.00 0.00 0.00 38 1011.9
20260510003047 75 172 0.0 0.0 0.00 0.00 0.00 38 1012.2
20260510002542 75 172 0.0 0.0 0.00 0.00 0.00 39 1012.0
20260510002040 76 172 0.0 0.0 0.00 0.00 0.00 40 1012.0
20260510001537 76 172 0.0 0.0 0.00 0.00 0.00 38 1012.0
20260510001035 76 172 0.0 0.0 0.00 0.00 0.00 37 1012.0
20260510000530 77 172 0.0 0.0 0.00 0.00 0.00 36 1012.0
20260510000027 77 172 0.0 0.0 0.00 0.00 0.00 35 1012.2
20260509235524 77 172 0.0 0.0 0.00 0.00 0.00 35 1012.2
20260509235021 77 172 0.0 0.0 0.00 0.00 0.00 36 1012.0
20260509234517 77 172 0.0 0.0 0.00 0.00 0.00 35 1012.1
20260509234015 77 172 0.0 0.0 0.00 0.00 0.00 36 1011.7
20260509233513 78 172 0.0 0.0 0.00 0.00 0.00 36 1011.9
20260509233010 78 173 0.0 0.0 0.00 0.00 0.00 34 1012.0
20260509232507 78 173 0.0 0.0 0.00 0.00 0.00 34 1011.9
20260509232003 78 173 0.0 0.0 0.00 0.00 0.00 33 1012.2
20260509231459 79 173 0.0 0.0 0.00 0.00 0.00 36 1012.2
20260509230957 79 173 0.0 0.9 0.00 0.00 0.00 32 1012.1
20260509230454 79 135 0.0 0.9 0.00 0.00 0.00 34 1012.1
20260509225950 79 173 0.0 0.9 0.00 0.00 0.00 35 1012.0
20260509225446 79 173 0.0 0.0 0.00 0.00 0.00 35 1011.9
20260509224942 79 173 0.0 0.0 0.00 0.00 0.00 33 1012.1
20260509224437 79 179 0.0 0.0 0.00 0.00 0.00 33 1011.9
20260509223935 80 180 0.0 0.0 0.00 0.00 0.00 36 1012.1
20260509223431 80 180 0.0 0.9 0.00 0.00 0.00 31 1012.0
20260509222929 80 180 0.0 0.9 0.00 0.00 0.00 31 1012.1
20260509222424 80 177 0.0 0.0 0.00 0.00 0.00 29 1011.9
20260509221920 80 177 0.0 0.9 0.00 0.00 0.00 28 1012.0
20260509221417 80 175 0.9 0.9 0.00 0.00 0.00 28 1012.1
20260509220913 80 183 0.9 1.7 0.00 0.00 0.00 30 1012.1
20260509220409 80 234 0.0 0.0 0.00 0.00 0.00 28 1012.1
20260509215905 80 235 0.9 0.9 0.00 0.00 0.00 27 1012.0
20260509215401 80 234 0.0 0.9 0.00 0.00 0.00 28 1012.0
20260509214858 80 241 0.0 1.7 0.00 0.00 0.00 28 1012.1
20260509214355 80 311 0.9 1.7 0.00 0.00 0.00 29 1012.0
20260509213853 81 312 0.0 0.0 0.00 0.00 0.00 28 1012.1
20260509213347 81 312 0.0 0.9 0.00 0.00 0.00 30 1012.2
20260509212846 81 318 0.9 1.7 0.00 0.00 0.00 28 1012.2
20260509212343 81 351 0.0 1.7 0.00 0.00 0.00 28 1012.0
20260509211838 80 301 1.7 0.9 0.00 0.00 0.00 30 1012.1
20260509211334 80 302 0.0 1.7 0.00 0.00 0.00 31 1012.2
20260509210831 81 308 0.9 3.5 0.00 0.00 0.00 30 1012.1
20260509210329 81 310 0.0 0.9 0.00 0.00 0.00 30 1012.1
20260509205828 81 310 0.0 0.9 0.00 0.00 0.00 26 1012.2
20260509205323 82 296 0.0 0.0 0.00 0.00 0.00 27 1012.2
20260509204820 81 292 0.0 0.0 0.00 0.00 0.00 27 1012.4
20260509204316 81 281 0.0 0.0 0.00 0.00 0.00 30 1012.1
20260509203813 81 280 1.7 1.7 0.00 0.00 0.00 28 1012.6
20260509203310 81 308 1.7 2.6 0.00 0.00 0.00 29 1012.4
20260509202806 81 320 0.9 1.7 0.00 0.00 0.00 29 1012.4
20260509202306 81 304 1.7 2.6 0.00 0.00 0.00 27 1012.4
20260509201801 81 292 0.0 0.9 0.00 0.00 0.00 28 1012.6
20260509201258 81 302 0.9 1.7 0.00 0.00 0.00 28 1012.7
20260509200754 81 287 0.9 2.6 0.00 0.00 0.00 28 1012.7
20260509200250 81 219 1.7 1.7 0.00 0.00 0.00 27 1012.6
20260509195746 81 151 0.9 0.9 0.00 0.00 0.00 27 1012.8
20260509195242 81 232 0.0 2.6 0.00 0.00 0.00 28 1012.8
20260509194736 81 267 0.0 0.9 0.00 0.00 0.00 27 1012.8
20260509194233 81 267 1.7 1.7 0.00 0.00 0.00 29 1012.9
20260509193730 81 292 0.0 0.9 0.00 0.00 0.00 31 1013.1
20260509193229 81 293 1.7 1.7 0.00 0.00 0.00 29 1012.9
20260509192726 82 303 1.7 2.6 0.00 0.00 0.00 28 1012.9
20260509192221 82 275 0.9 0.9 0.00 0.00 0.00 30 1012.9
20260509191716 82 357 0.0 0.9 0.00 0.00 0.00 28 1013.0
20260509191213 82 21 1.7 1.7 0.00 0.00 0.00 32 1012.9
20260509190709 82 285 0.0 0.9 0.00 0.00 0.00 31 1012.9
20260509190207 82 285 1.7 1.7 0.00 0.00 0.00 31 1013.1
20260509185704 82 313 1.7 1.7 0.00 0.00 0.00 30 1013.1
20260509185200 82 308 1.7 2.6 0.00 0.00 0.00 28 1013.0
20260509184658 81 204 0.9 1.7 0.00 0.00 0.00 29 1013.1
20260509184155 81 294 1.7 2.6 0.00 0.00 0.00 27 1013.1
20260509183651 81 270 0.9 1.7 0.00 0.00 0.00 29 1013.0
20260509183146 81 268 1.7 1.7 0.00 0.00 0.00 30 1013.1
20260509182642 81 288 1.7 1.7 0.00 0.00 0.00 29 1013.0
20260509182140 81 300 0.9 1.7 0.00 0.00 0.00 26 1013.0
20260509181638 81 307 0.9 2.6 0.00 0.00 0.00 31 1013.1
20260509181135 81 252 1.7 1.7 0.00 0.00 0.00 30 1013.0
20260509180631 82 297 1.7 1.7 0.00 0.00 0.00 28 1013.0
20260509180128 81 303 0.0 1.7 0.00 0.00 0.00 28 1013.2
20260509175623 81 280 2.6 2.6 0.00 0.00 0.00 31 1013.2
20260509175121 81 297 0.0 1.7 0.00 0.00 0.00 31 1013.2
20260509174617 80 277 1.7 1.7 0.00 0.00 0.00 33 1013.3
20260509174112 80 300 0.9 1.7 0.00 0.00 0.00 33 1013.3
20260509173608 80 312 0.9 0.9 0.00 0.00 0.00 33 1013.1
20260509173104 80 16 0.9 1.7 0.00 0.00 0.00 34 1013.0
20260509172601 79 296 0.0 2.6 0.00 0.00 0.00 36 1013.3
20260509172056 80 283 2.6 5.2 0.00 0.00 0.00 37 1013.3
20260509171552 80 251 0.9 1.7 0.00 0.00 0.00 33 1013.4
20260509171049 80 283 1.7 1.7 0.00 0.00 0.00 34 1013.6
20260509170545 80 293 1.7 2.6 0.00 0.00 0.00 37 1013.4
20260509170041 79 310 0.9 1.7 0.00 0.00 0.00 39 1013.6
20260509165540 79 292 1.7 2.6 0.00 0.00 0.00 37 1013.5
20260509165035 79 296 0.9 1.7 0.00 0.00 0.00 39 1013.5
20260509164532 78 298 0.9 1.7 0.00 0.00 0.00 41 1013.4
20260509164027 78 276 0.9 1.7 0.00 0.00 0.00 38 1013.5
20260509163526 78 282 0.9 1.7 0.00 0.00 0.00 39 1013.4
20260509163020 78 282 0.9 1.7 0.00 0.00 0.00 37 1013.4
20260509162518 77 292 1.7 5.2 0.00 0.00 0.00 40 1013.5
20260509162014 77 295 0.9 0.9 0.00 0.00 0.00 44 1013.5
20260509161510 77 281 0.9 2.6 0.00 0.00 0.00 46 1013.5
20260509161005 76 282 0.0 0.0 0.00 0.00 0.00 43 1013.3
20260509160501 76 285 1.7 1.7 0.00 0.00 0.00 50 1013.5
20260509155956 75 283 0.0 0.0 0.00 0.00 0.00 46 1013.2
20260509155453 75 286 1.7 1.7 0.00 0.00 0.00 46 1013.6
20260509154949 75 241 0.0 0.0 0.00 0.00 0.00 49 1013.2
20260509154445 74 241 0.0 0.0 0.00 0.00 0.00 50 1013.2
20260509153943 74 240 0.0 0.0 0.00 0.00 0.00 51 1013.4
20260509153440 73 238 0.0 0.0 0.00 0.00 0.00 52 1013.2
20260509152937 73 238 0.0 0.0 0.00 0.00 0.00 55 1013.2
20260509152433 72 238 0.0 0.0 0.00 0.00 0.00 53 1013.3
20260509151930 71 222 0.0 0.0 0.00 0.00 0.00 61 1013.3
20260509151426 71 222 0.0 0.0 0.00 0.00 0.00 61 1013.4
20260509150924 70 222 0.0 0.0 0.00 0.00 0.00 60 1013.3
20260509150421 70 222 0.0 0.0 0.00 0.00 0.00 64 1013.3
20260509145919 69 222 0.0 0.0 0.00 0.00 0.00 66 1013.2
20260509145414 69 222 0.0 0.0 0.00 0.00 0.00 66 1013.4
20260509144910 68 222 0.0 0.0 0.00 0.00 0.00 69 1013.4
20260509144407 68 222 0.0 0.0 0.00 0.00 0.00 68 1013.3